DW1345 Weather Reports


Display with metric or nautical units.
time (UTC)temp
F
wind
direction
speed
MPH
gust
MPH
rain 1hr
in
rain 24hr
in
rain mn
in
humidity
%
barometer
mb
20260904193004 53 105 0.0 0.0 0.00 0.00 0.01 84 997.0
20260904191504 53 109 0.0 0.0 0.00 0.00 0.01 84 997.1
20260904190003 54 109 0.0 0.0 0.00 0.00 0.01 84 997.0
20260904184503 54 109 0.0 0.0 0.00 0.00 0.01 84 997.1
20260904183003 55 109 0.0 0.0 0.00 0.00 0.01 82 997.1
20260904181510 57 109 0.0 0.0 0.00 0.00 0.01 80 996.9
20260904180006 58 109 0.0 0.0 0.00 0.00 0.01 79 996.8
20260904174507 59 109 0.0 0.0 0.00 0.00 0.01 78 997.0
20260904173002 60 109 0.0 0.0 0.00 0.00 0.01 77 997.0
20260904171608 61 109 0.0 0.0 0.00 0.00 0.01 77 996.9
20260904170107 61 109 0.0 0.0 0.00 0.00 0.01 75 997.0
20260904164601 61 109 0.0 0.0 0.00 0.00 0.01 74 996.9
20260904163059 62 109 0.0 0.0 0.00 0.00 0.01 73 997.0
20260904161604 62 109 0.0 0.0 0.00 0.00 0.01 71 996.9
20260904160058 62 109 0.0 0.0 0.00 0.00 0.01 69 996.9
20260904154557 63 109 1.0 0.0 0.00 0.00 0.01 67 997.1
20260904153105 64 106 0.0 0.0 0.00 0.00 0.01 71 997.0
20260904151556 63 106 0.0 0.0 0.00 0.00 0.01 71 997.0
20260904150057 63 106 0.0 0.0 0.00 0.00 0.01 66 997.0
20260904144601 63 103 3.0 0.0 0.00 0.00 0.01 63 997.1
20260904143054 63 109 3.0 0.0 0.00 0.00 0.01 64 997.1
20260904141553 63 132 5.0 0.0 0.00 0.00 0.01 63 997.1
20260904140052 64 109 5.0 0.0 0.00 0.00 0.01 62 997.3
20260904134551 64 99 5.0 0.0 0.00 0.00 0.01 62 997.3
20260904133050 65 136 6.0 0.0 0.00 0.00 0.01 59 997.4
20260904131551 65 123 6.0 0.0 0.00 0.00 0.01 61 997.4
20260904130048 66 101 6.0 0.0 0.00 0.00 0.01 61 997.3
20260904124557 66 76 5.0 0.0 0.00 0.00 0.01 59 997.3
20260904123045 67 90 5.0 0.0 0.00 0.00 0.01 57 997.4
20260904121542 66 132 6.0 0.0 0.00 0.00 0.01 58 997.5
20260904120046 66 123 5.0 0.0 0.00 0.00 0.01 57 997.5
20260904114541 65 91 4.0 0.0 0.00 0.00 0.01 61 997.5
20260904113040 65 95 6.0 0.0 0.00 0.00 0.01 62 997.7
20260904111531 64 77 5.0 0.0 0.00 0.00 0.01 64 997.8
20260904110029 64 103 4.0 0.0 0.00 0.00 0.01 66 997.8
20260904104527 64 132 5.0 0.0 0.00 0.00 0.01 66 998.2
20260904103032 63 74 3.0 0.0 0.00 0.00 0.01 70 998.0
20260904101522 63 73 2.0 0.0 0.00 0.00 0.01 70 998.0
20260904100018 62 113 3.0 0.0 0.00 0.00 0.01 74 998.2
20260904094514 61 138 3.0 0.0 0.00 0.00 0.01 78 998.4
20260904093011 60 101 3.0 0.0 0.00 0.00 0.01 78 998.3
20260904091507 59 50 4.0 0.0 0.00 0.00 0.01 80 998.5
20260904090008 58 86 5.0 0.0 0.00 0.00 0.01 80 998.5
20260904084501 58 79 4.0 0.0 0.00 0.00 0.01 83 998.6
20260904083100 57 66 4.0 0.0 0.00 0.00 0.01 83 998.6
20260904081633 57 74 3.0 0.0 0.00 0.00 0.01 85 998.7
20260904080055 57 65 3.0 0.0 0.00 0.00 0.01 85 998.6
20260904074607 56 122 3.0 0.0 0.00 0.00 0.01 88 998.6
20260904073102 56 126 4.0 0.0 0.00 0.00 0.01 90 998.7
20260904071547 55 127 3.0 0.0 0.00 0.00 0.01 92 998.9
20260904070056 54 69 1.0 0.0 0.00 0.00 0.01 94 999.0
20260904064541 53 17 0.0 0.0 0.00 0.00 0.01 96 999.0
20260904063040 52 26 1.0 0.0 0.00 0.00 0.01 96 999.0
20260904061536 52 49 2.0 0.0 0.00 0.00 0.01 96 999.2
20260904060034 51 55 2.0 0.0 0.00 0.00 0.01 97 999.2
20260904054531 50 33 2.0 0.0 0.00 0.00 0.01 96 999.4
20260904053036 49 37 2.0 0.0 0.00 0.00 0.01 96 999.4
20260904051535 49 42 2.0 0.0 0.00 0.00 0.01 97 999.6
20260904050034 48 39 1.0 0.0 0.00 0.00 0.01 96 999.5
20260904044526 47 40 0.0 0.0 0.00 0.00 0.01 95 999.6
20260904043025 48 53 1.0 0.0 0.00 0.00 0.01 96 999.7
20260904041525 49 82 2.0 0.0 0.00 0.00 0.01 96 999.7
20260904040025 49 61 1.0 0.0 0.00 0.00 0.01 96 999.7
20260904034526 49 67 1.0 0.0 0.00 0.00 0.01 96 999.7
20260904033022 49 68 1.0 0.0 0.00 0.00 0.01 96 999.8
20260904031522 48 59 1.0 0.0 0.00 0.00 0.01 96 999.9
20260904030021 48 85 0.0 0.0 0.00 0.00 0.01 95 1000.0
20260904024520 49 120 2.0 0.0 0.00 0.00 0.01 96 1000.0
20260904023026 47 70 0.0 0.0 0.00 0.00 0.01 95 1000.3
20260904021532 48 70 0.0 0.0 0.00 0.00 0.01 95 1000.1
20260904020018 49 71 0.0 0.0 0.00 0.00 0.01 95 1000.2
20260904014517 50 80 0.0 0.0 0.00 0.00 0.01 95 1000.1
20260904013014 49 93 0.0 0.0 0.00 0.00 0.01 96 1000.2
20260904011520 48 144 0.0 0.0 0.00 0.00 0.00 95 1000.2
20260904010008 47 185 0.0 0.0 0.00 0.00 0.00 95 1000.3
20260904004512 47 186 0.0 0.0 0.00 0.00 0.00 95 1000.4
20260904003005 46 190 0.0 0.0 0.00 0.00 0.00 95 1000.4
20260904001505 46 190 0.0 0.0 0.00 0.00 0.00 95 1000.7
20260904000002 45 190 0.0 0.0 0.00 0.00 0.00 94 1000.8
20260903234502 45 190 0.0 0.0 0.00 0.00 0.00 94 1000.6
20260903233100 45 190 0.0 0.0 0.00 0.00 0.00 94 1000.7
20260903231618 45 190 0.0 0.0 0.00 0.00 0.00 94 1000.7
20260903230104 45 191 0.0 0.0 0.00 0.00 0.00 93 1000.7
20260903224557 46 191 0.0 0.0 0.00 0.00 0.00 93 1000.6
20260903223053 46 191 0.0 0.0 0.00 0.00 0.00 93 1000.8
20260903221553 46 191 0.0 0.0 0.00 0.00 0.00 93 1000.6
20260903220106 47 192 0.0 0.0 0.00 0.00 0.00 93 1000.7
20260903214553 47 192 0.0 0.0 0.00 0.00 0.00 93 1000.7
20260903213051 47 192 0.0 0.0 0.00 0.00 0.00 93 1000.5
20260903211547 48 192 0.0 0.0 0.00 0.00 0.00 93 1000.6
20260903210050 48 192 0.0 0.0 0.00 0.00 0.00 92 1000.7
20260903204547 48 192 0.0 0.0 0.00 0.00 0.00 92 1000.8
20260903203046 49 192 0.0 0.0 0.00 0.00 0.00 92 1000.7
20260903201546 49 192 0.0 0.0 0.00 0.00 0.00 92 1000.7
20260903200046 50 192 0.0 0.0 0.00 0.00 0.00 91 1000.8
20260903194551 51 192 0.0 0.0 0.00 0.00 0.00 91 1000.8